Temp
76 76 76 75 75 73 74 74 73 73 73 73 72 72 71 70 69 67 66 65 64 63 63 63 63 63 63 64 64 64 64 66 65 64 66 65 65 66 67 67 69 70 72
77 76 76 76 75 74 74 75 74 73 73 73 72 72 71 70 68 67 65 65 63 63 62 61 63 64 61 62 64 63 64 64 65 62 63 64 65 64 64 65 67 71 71
74 77 77 77 75 75 75 75 74 74 73 73 72 71 70 69 68 66 66 64 63 63 62 62 62 62 61 62 63 63 63 64 64 64 62 62 63 64 64 64 64 65 72
77 76 75 76 77 77 76 75 75 74 73 73 72 72 70 69 68 67 65 63 63 63 62 62 62 62 62 62 63 63 63 63 62 63 61 61 63 61 62 62 64 64 66
74 73 76 76 77 77 76 75 75 74 74 73 72 72 70 69 69 66 65 63 61 61 61 62 63 63 65 64 63 61 61 61 62 61 60 60 61 61 61 60 61 61 63
75 72 71 75 75 75 76 74 74 73 73 72 71 70 68 71 68 67 65 63 62 61 61 61 62 67 67 66 66 64 63 60 59 60 59 60 58 59 59 60 60 61 63
77 77 76 76 74 74 75 73 73 73 73 72 70 70 68 69 66 66 67 64 62 61 61 60 62 66 65 64 66 65 65 65 63 61 58 59 58 59 59 57 58 59 61
74 76 77 77 76 75 72 73 74 74 72 71 70 69 68 66 64 65 67 63 62 61 60 60 62 61 60 61 60 61 62 64 63 65 62 61 63 60 61 62 61 60 61
72 75 76 77 75 71 68 69 75 73 71 70 70 68 67 65 63 64 64 62 62 60 59 59 60 59 60 61 59 60 61 63 63 62 63 62 63 62 62 62 62 63 63
72 74 76 77 76 75 75 74 74 72 71 70 68 68 67 66 63 63 64 64 61 61 58 57 62 60 60 60 61 61 61 63 63 62 64 64 64 64 63 63 63 63 61
72 73 75 75 74 75 75 74 72 69 68 67 66 66 67 66 63 61 62 63 63 61 60 58 61 60 58 58 59 61 62 62 62 62 62 63 63 63 64 63 62 63 61
71 71 71 73 73 72 70 69 68 68 66 65 65 64 64 64 61 59 60 62 63 61 60 61 62 57 56 56 58 59 58 61 62 61 61 62 62 63 64 63 62 61 63
70 70 70 70 71 71 70 67 66 66 65 64 63 61 60 61 60 58 57 60 61 63 63 62 58 55 55 56 57 58 59 61 60 60 60 61 61 64 62 62 63 62 61
68 69 70 69 68 68 68 67 65 65 64 64 62 62 61 59 60 60 58 58 60 61 61 60 60 60 59 60 60 60 61 61 60 60 60 61 62 61 62 63 64 64 63
68 68 69 69 67 66 67 66 66 66 64 64 64 63 61 59 60 59 58 59 61 61 60 59 58 58 58 59 59 60 60 60 59 59 59 60 60 61 61 62 62 63 61
67 66 67 68 66 65 64 61 55 56 57 54 54 60 63 59 53 51 51 51 52 52 59 58 58 58 59 59 59 59 58 59 60 59 59 60 61 62 62 61 61 58 60
66 67 68 65 65 64 64 63 60 56 52 52 52 54 54 53 50 49 48 49 49 53 62 60 60 59 59 59 60 61 60 59 60 59 60 61 60 61 60 59 59 61 60
66 60 67 67 66 64 64 63 62 59 58 58 52 54 52 50 49 49 47 49 51 55 60 60 61 59 60 58 59 60 61 60 60 61 60 62 62 60 59 60 59 57 59
64 67 68 67 66 64 64 62 62 60 59 59 54 53 51 46 48 45 48 58 56 57 59 62 60 61 60 59 60 60 61 61 61 62 62 59 63 61 62 63 62 55 56
65 63 64 66 64 63 63 61 61 60 59 58 57 57 53 51 52 51 54 59 57 58 59 59 59 60 61 60 61 61 60 59 59 60 60 61 61 60 62 62 63 62 61
65 66 64 66 64 63 63 61 60 60 59 58 58 58 51 56 56 53 52 56 58 59 55 56 59 59 58 60 61 60 59 61 60 61 60 59 61 57 61 62 64 63 62
65 65 66 65 64 63 63 63 61 60 60 59 58 56 48 57 58 56 55 57 59 60 60 59 59 61 62 61 60 61 61 60 61 61 62 63 63 63 64 63 62 61 60
64 64 65 65 64 61 62 64 62 61 59 60 59 55 53 56 59 60 59 58 59 59 59 60 61 60 61 64 63 63 63 63 62 63 63 64 63 62 62 61 61 60 60
62 64 63 64 63 63 64 63 63 57 60 59 59 58 58 58 60 61 62 62 62 63 62 62 63 66 64 63 63 62 64 66 65 63 64 64 64 58 61 59 60 60 61
59 61 63 62 63 63 63 63 63 62 60 60 59 57 58 59 62 63 62 63 62 65 64 64 64 65 65 64 63 63 58 47 58 55 63 62 61 59 60 60 61 61 60
57 57 61 63 62 63 62 62 62 61 60 59 58 57 57 58 60 63 62 63 64 64 64 65 65 65 65 66 66 57 43 40 49 41 60 61 60 60 60 61 60 60 59
MSLP
1009.43 1009.84 1010.37 1010.79 1011.38 1012.00 1012.65 1012.92 1013.06 1013.45 1014.02 1014.48 1014.87 1015.46 1016.04 1016.59 1017.05 1017.47 1017.98 1018.56 1019.16 1019.59 1019.80 1019.92 1020.00 1020.07 1020.18 1020.11 1020.17 1020.31 1020.36 1020.35 1020.82 1021.74 1021.86 1022.11 1022.19 1022.13 1022.32 1022.33 1022.19 1022.11 1022.09
1008.82 1009.29 1009.72 1010.25 1010.90 1011.56 1011.99 1012.44 1012.85 1013.14 1013.51 1013.91 1014.39 1014.88 1015.41 1015.96 1016.55 1017.14 1017.67 1018.18 1018.77 1019.25 1019.49 1019.80 1020.01 1020.14 1020.26 1020.16 1020.08 1020.17 1020.19 1020.30 1020.46 1021.29 1021.87 1022.09 1022.31 1022.48 1022.48 1022.35 1022.25 1022.09 1022.12
1009.04 1009.55 1009.81 1010.05 1010.33 1010.77 1011.35 1011.80 1012.38 1012.87 1012.99 1013.32 1013.75 1014.22 1014.70 1015.26 1015.93 1016.62 1017.23 1017.75 1018.22 1018.70 1019.15 1019.48 1019.52 1019.86 1020.13 1020.12 1020.13 1020.18 1020.27 1020.27 1020.27 1020.78 1021.75 1022.25 1022.53 1022.51 1022.52 1022.46 1022.49 1022.47 1022.14
1007.72 1008.05 1008.88 1009.39 1009.64 1010.10 1010.43 1011.05 1011.67 1012.19 1012.66 1012.83 1013.06 1013.48 1014.00 1014.59 1015.33 1016.09 1016.87 1017.64 1018.05 1018.41 1018.81 1019.08 1019.28 1019.49 1019.65 1019.78 1019.95 1020.06 1020.23 1020.33 1020.46 1020.95 1021.67 1022.17 1022.47 1022.91 1022.87 1022.93 1022.81 1022.76 1022.61
1006.76 1007.51 1007.36 1008.02 1009.05 1009.68 1010.21 1010.61 1010.92 1011.21 1011.47 1012.07 1012.50 1012.88 1013.42 1014.12 1014.79 1015.53 1016.39 1017.21 1017.89 1018.41 1018.73 1019.00 1019.10 1019.18 1019.38 1019.49 1019.71 1020.08 1020.18 1020.24 1020.62 1021.07 1021.68 1022.16 1022.45 1022.78 1023.00 1023.23 1023.13 1023.10 1023.02
1006.09 1005.77 1005.71 1006.60 1007.67 1008.68 1008.94 1009.43 1010.01 1010.58 1011.20 1011.24 1011.92 1012.46 1013.05 1013.45 1013.99 1014.75 1015.58 1016.44 1017.12 1017.89 1018.44 1018.74 1018.95 1019.16 1019.32 1019.51 1019.63 1019.80 1019.79 1019.96 1020.50 1020.82 1021.48 1021.81 1022.36 1022.65 1023.01 1023.09 1023.07 1023.05 1023.07
1006.54 1006.20 1006.28 1006.53 1006.82 1007.09 1006.97 1007.98 1008.79 1009.26 1010.26 1010.49 1010.72 1011.41 1012.10 1012.84 1013.35 1014.22 1015.01 1015.78 1016.63 1017.47 1018.17 1018.78 1018.84 1018.96 1019.27 1019.50 1019.66 1019.86 1019.98 1020.08 1020.05 1020.32 1020.90 1021.49 1021.95 1022.32 1022.66 1022.99 1022.96 1022.93 1022.99
1005.70 1005.35 1005.59 1005.77 1006.10 1005.93 1005.54 1005.85 1006.35 1007.61 1008.05 1009.07 1009.64 1010.43 1011.32 1011.96 1012.18 1012.79 1013.78 1014.78 1015.39 1016.19 1017.17 1018.04 1018.53 1018.94 1019.28 1019.59 1019.89 1020.07 1020.00 1020.19 1020.23 1020.24 1020.43 1020.94 1021.27 1021.85 1022.08 1022.18 1022.55 1022.70 1022.88
1004.73 1004.80 1004.69 1004.79 1005.09 1005.33 1005.30 1005.60 1005.28 1005.97 1006.81 1006.54 1007.13 1008.31 1009.55 1010.56 1011.03 1011.52 1012.70 1012.87 1013.97 1014.99 1015.63 1017.22 1018.00 1018.56 1019.01 1019.40 1019.79 1020.24 1020.41 1020.38 1020.43 1020.44 1020.52 1020.89 1021.27 1021.60 1021.84 1022.18 1022.36 1022.49 1022.55
1004.51 1004.09 1004.29 1004.56 1004.70 1005.00 1004.80 1004.72 1004.83 1005.19 1005.89 1006.38 1008.24 1008.31 1007.98 1009.11 1010.44 1011.53 1012.41 1013.47 1014.46 1015.41 1015.53 1016.31 1017.35 1018.03 1018.86 1019.22 1019.66 1020.07 1020.41 1020.34 1020.40 1020.65 1020.80 1020.90 1021.21 1021.52 1021.79 1021.78 1022.06 1022.12 1022.50
1004.33 1003.77 1003.67 1003.64 1003.86 1004.03 1004.65 1005.02 1005.47 1006.41 1004.31 1007.27 1007.36 1007.95 1009.77 1009.19 1009.38 1009.89 1011.43 1013.12 1013.10 1014.38 1015.31 1016.36 1016.79 1017.41 1018.40 1018.98 1019.30 1019.75 1019.92 1020.14 1020.40 1020.58 1020.78 1020.90 1021.14 1021.35 1021.46 1021.51 1021.63 1021.79 1021.94
1004.76 1004.06 1003.76 1003.70 1003.39 1003.62 1004.20 1005.08 1005.28 1005.71 1006.15 1007.25 1007.45 1008.80 1010.39 1009.17 1008.98 1008.08 1009.97 1012.16 1013.07 1013.33 1014.49 1015.32 1016.23 1016.76 1017.83 1018.60 1018.85 1019.12 1019.63 1020.00 1020.41 1020.57 1020.72 1020.78 1020.85 1020.83 1020.88 1021.01 1021.11 1021.25 1021.24
1005.17 1004.67 1004.28 1003.91 1004.00 1003.98 1004.30 1004.87 1004.93 1005.08 1006.13 1007.17 1008.01 1009.21 1010.34 1009.77 1009.20 1009.18 1011.69 1012.34 1012.23 1013.14 1013.99 1014.16 1015.08 1016.00 1017.21 1018.00 1018.11 1018.65 1019.25 1019.80 1020.10 1020.26 1020.31 1020.35 1020.40 1020.33 1020.55 1020.70 1020.65 1020.71 1020.88
1005.11 1004.76 1004.61 1004.39 1004.15 1004.14 1004.18 1004.92 1005.04 1004.96 1004.73 1004.97 1004.74 1006.08 1009.14 1010.51 1009.81 1009.68 1010.74 1010.76 1011.83 1012.65 1013.36 1014.27 1015.07 1015.58 1016.48 1017.20 1017.85 1018.40 1018.86 1019.28 1019.55 1019.59 1019.66 1019.90 1020.12 1020.14 1020.12 1020.40 1020.36 1020.39 1020.36
1004.76 1004.43 1004.05 1004.10 1004.02 1004.19 1004.48 1004.62 1005.01 1004.55 1004.61 1004.61 1005.51 1004.69 1006.84 1008.75 1008.89 1008.35 1009.65 1009.87 1011.10 1011.98 1012.92 1013.85 1015.11 1016.11 1016.42 1016.88 1017.28 1017.72 1018.34 1018.79 1019.14 1019.19 1019.40 1019.50 1019.62 1019.69 1019.60 1019.75 1019.87 1019.82 1019.78
1004.36 1004.21 1003.83 1003.72 1003.83 1003.95 1004.28 1004.59 1004.36 1004.40 1004.74 1004.77 1004.65 1005.12 1006.68 1007.74 1007.69 1008.18 1009.15 1010.37 1011.38 1011.73 1012.79 1013.35 1014.44 1015.16 1015.43 1015.72 1016.27 1016.91 1017.63 1018.14 1018.45 1018.59 1018.70 1018.97 1018.94 1018.88 1018.79 1019.07 1019.26 1019.39 1019.28
1003.63 1003.58 1003.53 1003.41 1003.47 1003.67 1003.82 1004.20 1004.56 1004.92 1004.94 1005.00 1005.19 1005.79 1006.33 1006.77 1007.45 1007.78 1008.81 1009.92 1010.67 1011.50 1012.07 1013.00 1013.76 1014.54 1014.99 1015.33 1015.58 1015.94 1016.33 1016.95 1017.44 1017.93 1017.98 1018.19 1018.27 1018.29 1018.29 1018.34 1018.60 1018.69 1018.52
1002.95 1003.05 1003.10 1003.26 1003.21 1003.28 1003.48 1003.78 1004.20 1004.50 1004.77 1005.29 1005.62 1005.75 1006.25 1006.66 1007.21 1008.07 1008.84 1010.07 1011.50 1011.71 1011.79 1012.29 1013.15 1013.87 1014.18 1014.60 1014.84 1015.16 1015.62 1016.30 1016.77 1017.05 1017.29 1017.54 1017.56 1017.58 1017.67 1017.62 1017.72 1017.64 1017.39
1002.42 1002.33 1002.32 1002.65 1002.86 1002.88 1003.02 1003.14 1003.46 1003.94 1004.25 1004.61 1005.30 1005.74 1006.25 1006.87 1007.55 1008.00 1008.75 1009.45 1010.33 1010.96 1011.35 1011.80 1012.28 1012.78 1013.17 1013.62 1014.00 1014.53 1015.07 1015.69 1015.84 1016.00 1016.27 1016.67 1016.55 1016.74 1016.65 1016.59 1016.58 1016.70 1016.71
1002.18 1001.93 1001.91 1002.15 1002.39 1002.45 1002.63 1002.78 1002.99 1003.24 1003.72 1004.17 1004.58 1004.93 1005.87 1006.79 1007.67 1007.98 1008.31 1008.71 1009.39 1009.72 1010.47 1010.99 1011.42 1012.08 1012.49 1012.86 1013.43 1014.09 1014.52 1015.10 1015.26 1015.35 1015.40 1015.52 1015.55 1015.71 1015.64 1015.69 1015.44 1015.89 1016.08
1001.67 1001.58 1001.62 1001.71 1001.76 1001.88 1001.86 1002.06 1002.34 1002.48 1002.98 1003.49 1003.89 1004.24 1004.69 1005.62 1006.23 1007.20 1007.76 1008.04 1008.63 1009.14 1009.76 1010.09 1010.70 1011.39 1011.78 1012.25 1012.74 1013.12 1013.64 1013.85 1014.21 1014.30 1014.47 1014.37 1014.46 1014.57 1014.71 1014.85 1014.81 1015.09 1015.30
1001.35 1001.14 1000.99 1000.83 1000.88 1001.08 1001.14 1001.36 1001.75 1002.09 1002.37 1002.90 1003.27 1003.84 1004.45 1005.03 1005.49 1006.34 1006.82 1007.12 1007.62 1008.29 1008.75 1009.19 1009.92 1010.50 1010.54 1010.86 1011.69 1012.20 1012.34 1012.92 1012.97 1013.35 1013.57 1013.48 1013.57 1013.73 1013.91 1014.04 1014.22 1014.39 1014.66
1000.86 1000.65 1000.28 1000.01 1000.03 1000.23 1000.43 1000.51 1000.88 1001.31 1001.67 1001.94 1002.46 1003.02 1003.75 1004.26 1004.84 1005.24 1005.59 1006.16 1006.72 1007.30 1007.92 1008.48 1008.99 1009.50 1009.76 1009.90 1010.31 1010.98 1011.38 1011.64 1011.70 1012.14 1012.46 1012.52 1012.73 1012.89 1013.15 1013.37 1013.57 1013.92 1014.08
1000.34 999.91 999.68 999.43 999.36 999.35 999.38 999.73 1000.08 1000.43 1000.92 1001.22 1001.83 1002.24 1002.71 1003.31 1003.94 1004.12 1004.50 1004.97 1005.82 1006.58 1007.05 1007.45 1007.88 1008.39 1008.67 1008.86 1009.24 1009.72 1010.52 1010.51 1010.73 1011.18 1011.47 1011.70 1011.91 1012.27 1012.65 1012.85 1013.00 1013.30 1013.48
999.84 999.39 998.99 998.82 998.63 998.49 998.59 998.96 999.45 999.77 1000.07 1000.43 1000.79 1001.34 1001.74 1002.13 1002.91 1003.37 1003.79 1004.43 1005.02 1005.82 1006.23 1006.68 1007.25 1007.59 1007.91 1008.18 1008.40 1009.00 1009.29 1009.48 1010.05 1010.37 1010.66 1010.94 1011.28 1011.61 1011.85 1012.22 1012.50 1012.77 1013.09
999.19 998.98 998.62 998.07 998.01 998.00 998.30 998.65 999.11 999.13 999.18 999.21 998.73 1000.37 1001.02 1001.69 1002.37 1002.82 1003.53 1004.01 1004.44 1004.91 1005.51 1006.18 1006.59 1006.80 1006.95 1007.32 1007.67 1007.93 1008.39 1008.90 1009.34 1009.78 1009.89 1010.28 1010.78 1011.11 1011.43 1011.63 1012.05 1012.34 1012.62
Wind_Speed
13 12 11 11 11 10 10 10 11 9 10 10 10 10 9 9 7 7 7 7 6 4 3 3 3 3 3 3 2 2 3 3 3 2 1 2 2 4 4 3 4 2 2
12 12 13 11 10 11 11 11 9 10 10 11 10 11 11 10 10 9 9 8 8 7 5 5 4 4 4 3 3 3 3 3 3 5 1 2 3 2 1 2 4 3 2
6 8 9 11 11 13 12 11 10 10 11 10 11 12 12 11 11 9 9 9 8 7 6 6 7 7 5 4 3 4 3 3 3 5 4 1 2 1 1 2 3 3 2
10 12 10 11 12 12 12 12 12 12 12 12 12 12 12 12 11 10 9 8 7 7 7 6 7 7 7 7 5 5 4 4 3 4 3 2 1 2 3 2 1 2 2
9 9 18 13 10 10 10 11 11 13 13 13 13 12 12 11 9 11 10 9 8 7 6 6 6 7 10 8 5 5 5 4 4 5 3 2 2 2 1 1 0 1 1
14 15 7 11 11 11 11 11 12 13 12 13 13 13 13 10 16 18 15 11 10 9 8 7 6 9 9 10 7 10 8 7 6 5 3 3 3 2 2 2 1 1 2
14 15 11 9 14 16 13 13 15 16 13 15 15 15 15 12 20 21 21 10 10 9 8 6 6 5 6 5 7 8 6 5 5 5 6 4 4 6 5 3 2 2 2
11 16 14 16 19 17 15 18 19 16 19 16 15 14 13 12 26 25 25 13 11 11 10 9 7 6 5 6 6 5 5 4 5 4 6 7 4 7 4 3 3 1 1
9 13 14 15 17 16 16 12 13 16 17 18 19 19 18 15 27 27 23 16 15 14 12 9 8 7 10 12 7 6 5 3 4 6 8 10 9 12 8 5 2 1 1
9 8 7 11 16 17 18 17 16 16 14 9 8 13 20 18 24 23 17 9 10 7 8 9 14 10 13 13 7 7 6 6 6 3 4 4 6 7 12 5 4 2 2
11 11 3 7 11 14 13 10 6 5 2 6 5 9 10 14 19 25 19 10 10 9 8 6 6 13 12 13 10 7 6 5 6 5 4 3 2 3 5 6 6 4 4
8 9 9 4 5 6 10 7 9 7 8 6 9 10 12 2 6 13 16 11 12 10 9 8 7 13 12 13 11 10 8 7 4 4 3 3 4 4 4 4 5 6 7
5 6 5 5 2 7 10 8 8 9 10 10 11 10 9 7 8 22 3 11 17 10 8 11 13 14 14 12 14 12 12 5 5 4 5 4 3 3 2 3 3 4 5
3 3 3 4 5 1 2 2 3 6 6 8 11 11 7 4 4 10 14 14 17 12 12 6 9 10 11 9 7 8 6 7 7 5 5 4 3 3 3 3 3 3 3
5 5 3 3 3 3 3 4 8 8 8 9 9 11 13 12 14 19 11 11 11 12 12 7 5 4 6 6 6 6 6 7 7 6 5 5 5 5 5 3 4 3 5
6 4 4 3 3 3 3 2 7 6 8 6 6 9 9 10 16 16 16 14 13 18 6 7 8 8 9 9 9 8 7 9 7 6 6 6 7 6 6 4 4 5 6
7 5 3 4 4 5 5 5 5 3 2 7 11 10 10 10 16 18 18 18 17 17 9 9 9 8 7 7 8 8 9 9 7 6 6 7 6 7 6 5 5 6 6
6 9 4 5 5 5 6 6 5 6 7 4 4 8 10 15 17 16 15 14 6 7 9 9 8 8 7 7 6 8 7 5 7 6 6 7 7 6 5 7 6 7 7
5 5 5 4 5 6 6 5 6 6 6 6 3 4 6 6 8 16 23 10 10 10 8 9 7 8 7 6 6 5 6 6 6 6 7 6 7 7 8 8 7 8 6
5 10 7 4 5 5 5 5 5 6 6 6 7 8 6 6 5 7 9 9 9 9 9 9 8 8 8 7 6 6 5 5 6 6 7 6 7 6 7 8 6 7 7
5 5 6 5 6 6 7 7 6 7 7 8 8 9 13 10 9 8 8 8 7 8 9 9 8 8 7 8 8 8 7 6 6 7 7 6 6 5 7 7 7 7 6
7 6 7 7 6 7 8 7 7 7 8 8 8 9 17 9 8 8 9 9 8 9 8 8 8 9 10 9 7 6 8 7 6 7 8 8 7 7 7 7 7 6 6
6 8 11 9 7 7 7 8 8 9 9 9 9 9 10 10 8 9 9 10 9 8 7 8 9 8 7 7 8 8 6 8 7 7 8 8 7 7 7 7 6 6 6
8 9 9 8 6 8 8 8 8 10 9 9 8 8 10 10 9 10 10 9 9 9 9 10 10 14 12 9 8 6 8 8 6 8 11 8 7 6 6 5 5 7 5
8 9 9 8 9 10 7 7 6 6 10 10 9 7 8 9 9 9 8 9 8 9 10 9 8 11 12 10 8 11 12 13 11 9 8 9 9 10 7 6 6 5 5
9 9 10 8 8 7 5 5 6 7 7 7 9 8 7 8 7 8 8 8 8 8 9 8 8 12 11 10 12 13 12 12 12 13 9 8 8 7 7 7 8 5 6
Wind_Direction
192 194 191 192 189 182 194 201 197 184 181 182 182 178 175 171 164 158 160 160 162 164 163 166 163 157 163 148 145 145 152 148 137 134 119 58 72 75 47 37 31 61 130
193 190 196 192 184 190 198 203 197 195 185 185 177 179 178 173 169 171 168 168 167 175 172 164 173 165 167 180 160 159 159 164 135 145 119 118 89 67 54 45 25 43 117
170 200 203 200 192 199 206 200 194 198 191 185 179 185 179 177 173 175 174 170 169 172 174 181 175 168 176 174 167 155 146 140 128 136 127 101 101 67 72 25 30 14 51
181 185 200 209 207 208 202 201 199 197 194 192 192 190 184 176 174 168 164 164 163 173 177 184 180 181 177 171 171 166 151 136 121 125 110 126 111 68 64 36 25 26 26
181 174 211 195 207 211 214 212 207 200 197 194 191 191 183 174 172 165 166 166 165 167 181 188 191 192 188 183 162 176 155 138 143 141 126 127 129 129 117 74 280 324 193
207 214 219 184 185 204 205 203 203 202 207 189 194 189 180 184 170 167 164 168 166 169 177 186 189 192 178 182 187 179 173 151 156 143 139 147 156 138 146 165 144 130 164
215 235 238 212 192 192 191 190 206 201 198 201 190 188 187 182 165 168 174 167 162 169 170 176 182 184 172 169 170 164 144 131 149 147 146 167 154 176 152 160 157 151 167
224 220 209 202 208 212 213 209 203 200 199 200 193 188 180 182 170 173 172 167 167 170 167 176 180 164 170 154 145 147 136 140 140 149 156 157 148 154 164 166 153 135 151
261 233 216 206 208 215 228 238 209 204 207 201 190 179 178 182 178 176 174 172 170 173 161 169 177 169 181 166 149 153 158 168 178 146 136 155 160 171 163 144 143 112 37
325 276 203 193 203 215 228 240 224 226 228 215 209 197 188 181 188 179 163 170 154 174 159 160 183 175 183 169 157 162 175 191 177 160 180 185 189 189 187 207 164 189 199
328 328 242 203 205 211 215 223 216 190 136 134 92 323 234 199 186 170 159 166 163 160 166 170 182 182 177 175 172 180 198 160 178 170 163 163 188 201 214 219 208 205 199
337 344 333 256 198 177 151 151 164 139 112 122 129 121 279 227 327 165 147 145 152 152 172 171 189 180 178 187 178 191 160 156 161 163 177 200 222 238 237 230 220 218 227
335 336 331 313 263 164 166 158 162 167 170 162 153 169 223 188 159 131 141 176 161 164 181 173 170 173 184 188 187 184 171 180 181 193 210 221 213 220 252 274 251 240 251
305 301 298 285 271 216 76 127 206 185 178 175 162 154 190 233 163 164 184 182 189 181 163 176 178 173 177 187 175 184 184 189 194 208 215 229 243 224 222 207 234 219 253
299 288 265 233 236 222 191 188 202 198 194 182 206 166 173 186 191 183 201 178 181 177 164 145 140 170 179 187 191 185 189 192 204 206 217 228 235 233 248 218 243 232 235
277 280 269 255 217 205 187 197 16 350 269 211 203 171 195 214 157 149 157 158 164 147 154 164 183 191 192 190 191 192 189 202 212 205 213 229 244 250 254 223 223 226 248
236 246 246 232 198 197 201 198 196 25 328 195 207 207 210 179 162 157 165 168 158 155 179 185 194 192 194 194 198 193 195 202 196 204 212 230 234 250 241 240 235 232 246
230 250 252 263 239 208 201 205 189 180 178 178 190 156 177 165 164 179 158 126 141 213 187 187 189 188 191 191 191 196 197 177 196 210 218 234 235 236 236 239 231 220 220
204 227 214 244 231 219 205 195 184 186 187 173 123 99 131 106 169 148 154 176 186 195 188 198 193 200 198 187 183 185 188 200 208 206 221 219 229 227 238 238 237 229 208
259 239 224 223 238 216 199 194 191 184 175 175 185 179 138 116 164 171 180 186 188 184 184 188 195 204 200 191 181 177 193 211 211 221 228 224 229 221 246 245 217 235 228
252 259 231 226 214 213 215 201 200 187 189 188 193 185 173 179 177 176 178 183 180 177 181 190 195 187 170 170 185 192 205 211 217 228 228 225 223 210 223 236 239 233 238
283 270 266 245 227 219 216 193 195 200 199 196 183 171 166 180 178 169 180 179 182 191 189 179 176 180 179 182 182 195 189 211 222 221 234 233 228 236 235 233 233 226 222
267 264 265 248 218 214 206 207 202 197 199 196 185 159 175 191 195 186 175 173 176 179 176 173 177 182 186 186 179 188 199 222 219 218 229 231 232 229 223 223 217 227 226
272 265 259 257 229 215 219 225 210 192 191 187 198 180 175 176 185 179 175 166 173 186 184 183 186 189 194 188 185 179 216 233 230 226 229 231 230 199 207 209 207 212 212
267 270 264 244 239 233 234 212 193 183 198 193 191 177 169 166 180 177 166 166 168 177 184 182 185 186 193 195 184 196 220 221 221 220 215 210 210 194 184 191 192 198 199
262 267 266 243 227 216 208 217 232 205 187 176 154 170 163 160 176 171 163 170 173 174 174 183 195 203 205 214 224 224 219 218 216 210 201 189 190 185 191 199 197 201 210